White Plains, CT

5:13 PM EDT on October 19, 2019 (GMT -0400)
Westchester County

Weather History for KHPN - August, 2019

Change the Weather History Date:

Friday, August 30, 2019

  Actual Average Record
Temperature  
Mean Temperature 70 °F -  
Max Temperature 84 °F 76 °F 90 °F (1991)
Min Temperature 57 °F 59 °F 47 °F (1976)
Cooling Degree Days 6    
Growing Degree Days 20 (Base 50)    
Moisture  
Dew Point 58 °F    
Average Humidity 64    
Maximum Humidity 93    
Minimum Humidity 43    
Precipitation  
Precipitation 0.00 in - - ()
Sea Level Pressure  
Sea Level Pressure 30.00 in    
Wind  
Wind Speed 4 mph ()    
Max Wind Speed 15 mph    
Max Gust Speed 20 mph    
Visibility 10.0 miles    
Events      
Averages and records for this station are not official NWS values.
T = Trace of Precipitation, MM = Missing Value Source: Averaged Metar Reports

Daily Weather History Graph

Daily Weather History Graph

Search for Another Location

Airport or City:

Astronomy

Aug. 30, 2019 Rise Set
Actual Time 6:19 AM EDT 7:31 PM EDT
Civil Twilight 5:50 AM EDT 7:59 PM EDT
Nautical Twilight 5:16 AM EDT 8:33 PM EDT
Astronomical Twilight 4:41 AM EDT 9:08 PM EDT
Moon 6:16 AM EDT (8/30) 8:06 PM EDT (8/30)
Length of Visible Light 14h 08m
Length of Day
13h 11m
New Moon, 0% of the Moon is Illuminated
Aug 30
New Moon
Sep 5
First Quarter
Sep 14
Full
Sep 21
Last Quarter
Sep 28
New

Hourly Weather History & Observations

Time (EDT) Temp. Heat Index Dew Point Humidity Pressure Visibility Wind Dir Wind Speed Gust Speed Precip Events Conditions
12:56 AM 61.0 °F - 57.0 °F 87% 29.99 in 10.0 mi WNW 3.5 mph - N/A   Clear
1:56 AM 60.1 °F - 57.9 °F 93% 29.99 in 10.0 mi Calm Calm - N/A   Clear
2:56 AM 60.1 °F - 57.0 °F 90% 29.98 in 10.0 mi WNW 3.5 mph - N/A   Clear
3:56 AM 59.0 °F - 55.9 °F 90% 29.98 in 10.0 mi Calm Calm - N/A   Clear
4:56 AM 57.9 °F - 55.0 °F 90% 29.99 in 10.0 mi WSW 3.5 mph - N/A   Clear
5:56 AM 59.0 °F - 54.0 °F 83% 30.00 in 10.0 mi Calm Calm - N/A   Clear
6:56 AM 64.0 °F - 55.0 °F 73% 30.01 in 10.0 mi West 4.6 mph - N/A   Clear
7:56 AM 66.9 °F - 55.0 °F 66% 30.02 in 10.0 mi West 3.5 mph - N/A   Clear
8:56 AM 71.1 °F - 55.9 °F 59% 30.02 in 10.0 mi Variable 5.8 mph - N/A   Clear
9:56 AM 75.0 °F - 55.0 °F 50% 30.01 in 10.0 mi WSW 6.9 mph - N/A   Partly Cloudy
10:56 AM 78.1 °F - 55.0 °F 45% 30.01 in 10.0 mi WSW 10.4 mph - N/A   Partly Cloudy
11:56 AM 80.1 °F 80.2 °F 55.9 °F 43% 30.00 in 10.0 mi SW 10.4 mph 17.3 mph N/A   Clear
12:56 PM 82.0 °F 82.0 °F 57.9 °F 44% 29.99 in 10.0 mi West 9.2 mph - N/A   Clear
1:56 PM 82.0 °F 82.0 °F 57.9 °F 44% 29.98 in 10.0 mi WSW 9.2 mph - N/A   Clear
2:56 PM 84.0 °F 84.0 °F 60.1 °F 44% 29.97 in 10.0 mi West 12.7 mph 18.4 mph N/A   Partly Cloudy
3:56 PM 82.9 °F 83.2 °F 60.1 °F 46% 29.97 in 10.0 mi West 15.0 mph 19.6 mph N/A   Scattered Clouds
4:56 PM 82.9 °F 83.2 °F 60.1 °F 46% 29.97 in 10.0 mi West 5.8 mph - N/A   Scattered Clouds
5:56 PM 82.9 °F 83.2 °F 60.1 °F 46% 29.97 in 10.0 mi West 8.1 mph - N/A   Partly Cloudy
6:56 PM 80.1 °F 81.1 °F 61.0 °F 52% 29.99 in 10.0 mi West 6.9 mph - N/A   Clear
7:56 PM 77.0 °F - 61.0 °F 58% 30.00 in 10.0 mi West 4.6 mph - N/A   Clear
8:56 PM 75.9 °F - 62.1 °F 62% 30.02 in 10.0 mi WSW 4.6 mph - N/A   Clear
9:56 PM 75.9 °F - 61.0 °F 60% 30.04 in 10.0 mi WNW 5.8 mph - N/A   Clear
10:56 PM 73.0 °F - 63.0 °F 71% 30.05 in 10.0 mi NW 5.8 mph - N/A   Clear
11:56 PM 68.0 °F - 64.9 °F 90% 30.07 in 10.0 mi Calm Calm - N/A   Clear